Regional Weather Roundup
Issued by NWS Kansas City/Pleasant Hill, MO

Home | Current Version | Previous Version | Text Only | Print | Product List | Glossary On
Versions: 1 2 3 4 5 6 7 8 9 10 11 12 13 14 15 16 17 18 19 20 21 22 23 24 25 26 27 28
000
ASUS43 KEAX 300910
RWREAX

WEATHER ROUNDUP FOR EASTERN KANSAS AND NORTHWEST MISSOURI
NATIONAL WEATHER SERVICE KANSAS CITY/PLEASANT HILL MO
400 AM CDT MON MAY 30 2016

KSZ040-057-103>105-MOZ028-029-037-043-301000-
...KANSAS CITY METROPOLITAN AREA...

CITY           SKY/WX    TMP DP  RH WIND       PRES   REMARKS
K.C. INTL      CLOUDY    64  60  87 S6        30.02S
K.C. DOWNTOWN  CLEAR     68  62  81 CALM      30.01S
LEES SUMMIT    CLEAR     67  61  81 S3        30.03S
OLATHE - IXD   CLEAR     61  60  97 S5        30.04R
OLATHE - OJC   CLEAR     63  60  90 S3        30.04R
LAWRENCE       CLEAR     60  59  96 SE3       30.01F

$$

MOZ001>008-011>017-020>025-030>033-038>040-044>046-053-054-301000-
...NORTHERN AND CENTRAL MISSOURI...

CITY           SKY/WX    TMP DP  RH WIND       PRES   REMARKS
ST. JOSEPH     CLOUDY    63  61  93 CALM      30.02S
MOSBY            N/A     63  63 100 CALM      30.02S
WARRENSBURG    CLEAR     63  61  94 CALM      30.03R
WHITEMAN AFB   CLEAR     65  65  99 S3        30.02S
CLINTON        PTCLDY    64  64 100 CALM      30.04R
SEDALIA        CLEAR     66  62  87 S6        30.05R
WARSAW         NOT AVBL
CHILLICOTHE      N/A     62  61  96 CALM      30.03S
KIRKSVILLE     PTCLDY    63  60  90 W3        30.03F

$$

MOZ041-047>049-056>058-063>065-088>090-097-301000-
...EASTERN AND SOUTHERN MISSOURI...

CITY           SKY/WX    TMP DP  RH WIND       PRES   REMARKS
ST. LOUIS INTL PTCLDY    69  60  73 CALM      30.05S
SPIRIT OF STL  CLEAR     63  62  97 CALM      30.03F
COLUMBIA       CLEAR     66  63  90 S3        30.04S
JEFFERSON CITY CLEAR     64  63  96 SE5       30.04S
ROLLA          CLEAR     62  59  90 S8        30.05S
SPRINGFIELD    CLEAR     65  61  87 CALM      30.04F
JOPLIN         PTCLDY    63  62  97 E3        30.03F
WEST PLAINS    CLEAR     61  58  90 CALM      30.08S

$$

IAZ060-094-KSZ022-034>040-054-083-096-NEZ052-066-093-301000-
...KANSAS...SOUTHEAST NEBRASKA AND IOWA...

CITY           SKY/WX    TMP DP  RH WIND       PRES   REMARKS
TOPEKA         FOG       63  63 100 NW3       30.01F VSB 1/4
MANHATTAN      CLOUDY    60  58  92 SW5       30.00F
EMPORIA        MOCLDY    61  60  97 CALM      30.02F
CHANUTE        CLEAR     65  63  93 SE3       30.03S
WICHITA        MOCLDY    66  61  84 CALM      30.02R
OMAHA          CLOUDY    68  60  75 SE6       29.98F
LINCOLN        PTCLDY    66  59  78 SW3       29.99S
FALLS CITY     CLEAR     62  61  96 S7        29.99F
LAMONI         CLEAR     64  61  90 SW6       30.02R
DES MOINES     CLOUDY    67  58  72 S6        29.99F

$$





USA.gov is the U.S. government's official web portal to all federal, state and local government web resources and services.